Location: Llanfihangel-Ystrad
(52.1833°N, 4.1667°W)
Time: 05:19:56
(UTC+00:00)

Cosmos 1980 Rocket - Pass Details

Date: 17 February 2020
Orbit: 831 x 848 km, 71.0° (Epoch: 28 March)

Event Time Altitude Azimuth Distance (km) Brightness Sun altitude
Exits shadow 06:14:38 - 326° (NW) 3,328 4.9 -12.0°
Reaches altitude 10° 06:17:58 10° 347° (NNW) 2,456 4.4 -11.5°
Maximum altitude 06:21:16 16° 24° (NNE) 2,082 4.5 -11.0°
Drops below altitude 10° 06:24:33 10° 60° (ENE) 2,448 5.5 -10.5°
Sets 06:28:04 0° 82° (E) 3,378 7.1 -10.0°
